This is the latest recevied weather packets stored in our database for station/object OK1FET-4. If no packets are shown the sender has not sent any weather packets the latest 1 day(s).
| Time | Temp. | Humidity | Pressure | Rain* | Wind** | Luminosity | Snow |
|---|---|---|---|---|---|---|---|
| 1777978148 | 27.22° C | 81% | 1007.9 hPa | - | 0.89 m/s, 52° | - | - |
| 1777977846 | 26.67° C | 83% | 1007.9 hPa | - | 0.45 m/s, 54° | - | - |
| 1777977846 | 26.67° C | 83% | 1007.9 hPa | - | 0.45 m/s, 54° | - | - |
| 1777977845 | 26.67° C | 83% | 1007.9 hPa | - | 0.45 m/s, 54° | - | - |
| 1777977544 | 26.67° C | 83% | 1007.9 hPa | - | 0.89 m/s, 97° | - | - |
| 1777977543 | 26.67° C | 83% | 1007.9 hPa | - | 0.89 m/s, 97° | - | - |
| 1777977543 | 26.67° C | 83% | 1007.9 hPa | - | 0.89 m/s, 97° | - | - |
| 1777977241 | 26.11° C | 83% | 1008 hPa | - | 0.89 m/s, 68° | - | - |
| 1777977241 | 26.11° C | 83% | 1008 hPa | - | 0.89 m/s, 68° | - | - |
| 1777977241 | 26.11° C | 83% | 1008 hPa | - | 0.89 m/s, 68° | - | - |
| 1777976940 | 26.11° C | 80% | 1008 hPa | - | 0.89 m/s, 39° | - | - |
| 1777976939 | 26.11° C | 80% | 1008 hPa | - | 0.89 m/s, 39° | - | - |
| 1777976939 | 26.11° C | 80% | 1008 hPa | - | 0.89 m/s, 39° | - | - |
| 1777976637 | 26.67° C | 83% | 1008.1 hPa | - | 0.45 m/s, 62° | - | - |
| 1777976637 | 26.67° C | 83% | 1008.1 hPa | - | 0.45 m/s, 62° | - | - |
| 1777976335 | 26.11° C | 83% | 1008.2 hPa | - | 0.89 m/s, 95° | - | - |
| 1777976335 | 26.11° C | 83% | 1008.2 hPa | - | 0.89 m/s, 95° | - | - |
| 1777976335 | 26.11° C | 83% | 1008.2 hPa | - | 0.89 m/s, 95° | - | - |
| 1777976033 | 25.56° C | 80% | 1008.1 hPa | - | 0.89 m/s, 108° | - | - |
| 1777976033 | 25.56° C | 80% | 1008.1 hPa | - | 0.89 m/s, 108° | - | - |
| 1777976033 | 25.56° C | 80% | 1008.1 hPa | - | 0.89 m/s, 108° | - | - |
| 1777975732 | 25.56° C | 85% | 1008.1 hPa | - | 0.89 m/s, 66° | - | - |
| 1777975731 | 25.56° C | 85% | 1008.1 hPa | - | 0.89 m/s, 66° | - | - |
| 1777975430 | 25° C | 84% | 1008.1 hPa | - | 0.89 m/s, 19° | - | - |
| 1777975430 | 25° C | 84% | 1008.1 hPa | - | 0.89 m/s, 19° | - | - |
* Rain since midnight (hover to see other rain measurements)
** Current wind speed in m/s (hover to see current wind gust speed)